Location: Ostrava
(49.8330°N, 18.2830°E)
Time: 04:24:51
(UTC+02:00)

Cosmos 1400 Rocket - Visible Passes

Search period start: 02 September 2015 00:00
Search period end: 12 September 2015 00:00
Orbit: 526 x 573 km, 81.2° (Epoch: 01 September)

Date Brightness Start Highest point End Pass type
(mag) Time Alt. Az. Time Alt. Az. Time Alt. Az.
02 Sep 3.9 22:01:18 34° NE 22:01:18 34° NE 22:04:09 10° NNE visible
02 Sep 5.1 23:36:59 21° WNW 23:37:01 21° WNW 23:40:13 10° NNW visible
03 Sep 3.6 21:56:42 39° ENE 21:56:42 39° ENE 21:59:48 10° NNE visible
03 Sep 5.2 23:32:23 20° WNW 23:32:40 20° WNW 23:35:43 10° NNW visible
04 Sep 3.3 21:52:03 46° ENE 21:52:03 46° ENE 21:55:26 10° NNE visible
04 Sep 5.3 23:27:44 18° WNW 23:28:20 18° WNW 23:31:13 10° NNW visible
05 Sep 3.1 21:47:21 54° ENE 21:47:21 54° ENE 21:51:03 10° NNE visible
05 Sep 5.4 23:23:02 16° WNW 23:23:59 17° WNW 23:26:42 10° NNW visible
06 Sep 2.8 21:42:36 63° E 21:42:36 63° E 21:46:41 10° NNE visible
06 Sep 5.5 23:18:17 14° W 23:19:38 16° WNW 23:22:09 10° NNW visible
07 Sep 2.7 21:37:48 66° SE 21:38:08 70° E 21:42:18 10° NNE visible
07 Sep 5.7 23:13:28 12° W 23:15:18 15° WNW 23:17:35 10° NNW visible
08 Sep 2.7 21:32:53 55° S 21:33:43 78° E 21:37:54 10° NNE visible
08 Sep 5.8 23:08:48 10° W 23:10:57 13° WNW 23:12:59 10° NNW visible
09 Sep 2.8 21:27:51 40° S 21:29:18 85° ESE 21:33:30 10° NNE visible
09 Sep 5.9 23:04:44 10° W 23:06:37 12° WNW 23:08:20 10° NNW visible
10 Sep 4.9 19:48:18 10° E 19:48:56 10° E 19:49:47 10° ENE visible
10 Sep 2.8 21:22:39 27° SSW 21:24:54 87° W 21:29:06 10° NNE visible
10 Sep 6.0 23:00:46 10° WNW 23:02:16 11° WNW 23:03:36 10° NW visible
11 Sep 4.8 19:43:11 10° ESE 19:44:29 11° E 19:45:59 10° ENE visible
11 Sep 2.9 21:17:09 16° SSW 21:20:29 80° WNW 21:24:41 10° N visible
11 Sep 6.1 22:56:58 10° WNW 22:57:56 11° NW 22:58:42 10° NW visible
